STARLINK-1918, 46768

Orbit data source: Space-Track

STARLINK-1918, 46768 is a payload satellite owned by SpaceX/Seattle (US) in LEO that was launched on Sat, 24 Oct 2020 UTC via an FALCON 9 launch vehicle from the Air Force Eastern Test Range (AFETR). Payloads include a variety of satellites, spacecraft, and rockets equipped with specific instruments for various scientific and technological missions. These include communications satellites like Starlink; space stations such as the ISS; scientific satellites like the Hubble; Earth observation satellites from companies like Planet Labs, Umbra, and HawkEye 360; GPS; miniature CubeSats for education and research; and military/defense satellites.

Not visible in the next 10 days
STARLINK-1918 details
Identifier
46768, 2020-074AF
Orbit
LEO
Last TLE update4 hours ago
Origin
Flag of USSpaceX/Seattle (US)
ManufacturerSpaceX/Seattle
MissionPartially operational Commercial Communications
Bus & MotorSTARLINK, Unknown motor
Mass260 kg wet, ~248 kg dry
Launch date (UTC)
2020-10-24 (4 years ago)
Launch vehicle
FALCON 9
Launch site
Air Force Eastern Test Range (AFETR)
Object type
Payload
Rocket body
Debris
Shape & HBRBox + 1 Pan, 8.86 m
Radar Cross Section13.562 m², Large (>1 m²)

Expand to show TLE details & history

TLE from 4 hours ago
0 STARLINK-1918
1 46768U 20074AF  24361.25001157  .00728359  22466-3  22392-2 0  9998
2 46768  53.0371 119.6361 0009164 332.8775 157.2586 15.91207440230758
Epoch: 2024-12-26T06:00Z
Definitive object data (Epoch: 2024-12-26T06:00:00.999Z)
Latitude37.7514°
Longitude78.99041°
Altitude307.647 km
Speed7.725 km/s
True Right ascension17h 36m 54s
True Declination37° 34' 26"
Sunlit
Object was in daylight at TLE epoch
Visualization TLE readout
Latitude51.35558°
Longitude44.09248°
Altitude308.075 km
Speed7.727 km/s
Apparent Right ascension18h 51m 49s
Apparent Declination10° 35' 00"
Sunlit
Object is in daylight
Visualization observer readout
Local Sidereal Time09:45:36
Azimuth48.462° ENE
Elevation-25.439°
Doppler factor1
Orbital elements
Apogee altitude305.305 km
Perigee altitude293.067 km
Semi-major axis6,677.323 km
Eccentricity0.0009164
Inclination53.0371°
RAAN119.6361°
Arg. of periapsis332.8775°
True anomaly157.29915°
Mean anomaly157.2586°
Eccentric anomaly157.27888°
Mean motion3.97777 °/min
BSTAR0.0022392
Orbital period90.5 mins
Loading maneuver chart data...

STARLINK-1918 Visibility forecast

Observer location: undefined°, undefined

STARLINK-1918 is not visible in the next 10 days
Span
Click to sort rows by Start time (UTC) header in descending order
Start Az.
Max El. time (UTC)
Max El. Az.
Max El.
End time (UTC)
End Az.
|